Tracking 27405 objects as of 1-Jun-2023
HD Live streaming from Space Station
objects crossing your sky now

TEVEL 3

Track TEVEL 3 now!
10-day predictions
TEVEL 3 is classified as:


NORAD ID: 50988
Int'l Code: 2022-002E
Perigee: 495.2 km
Apogee: 503.6 km
Inclination: 97.4 °
Period: 94.5 minutes
Semi major axis: 6870 km
RCS: Unknown
Launch date: January 13, 2022
Source: Israel (ISRA)
Launch site: AIR FORCE EASTERN TEST RANGE (AFETR)

Uplink (MHz): 145.970
Downlink (MHz): 436.400
Beacon (MHz):
Mode: 9600bps BPSK FM
Call sign: T3TYB
Status: Active

Your satellite tracking list
Your tracking list is empty




NASA's NSSDC Master Catalog

Two Line Element Set (TLE):
1 50988U 22002E   23152.16670991  .00018429  00000-0  75092-3 0  9998
2 50988  97.4345 219.2476 0006105 288.5648  71.4926 15.24503753 76320
Source of the keplerian elements: AMSAT